Time,TemperatureF,DewpointF,PressureIn,WindDirection,WindDirectionDegrees,WindSpeedMPH,WindSpeedGustMPH,Humidity,HourlyPrecipIn,Conditions,Clouds,dailyrainin,SoftwareType,DateUTC
2013-02-09 00:00:00,39.0,36.0,30.04,South,180,29.0,33.0,88,-99.99,,,-99.99,,2013-02-09 09:00:00,
2013-02-09 00:41:00,39.0,36.0,30.04,South,180,29.0,33.0,88,-99.99,,,-99.99,,2013-02-09 09:41:00,
2013-02-09 00:51:00,39.0,36.0,30.04,South,180,29.0,33.0,88,-99.99,,,-99.99,,2013-02-09 09:51:00,
2013-02-09 01:00:00,39.0,36.0,30.06,South,170,26.0,34.0,88,-99.99,,,-99.99,,2013-02-09 10:00:00,
2013-02-09 01:41:00,39.0,36.0,30.06,South,170,26.0,34.0,88,-99.99,,,-99.99,,2013-02-09 10:41:00,
2013-02-09 01:51:00,39.0,36.0,30.06,South,170,26.0,34.0,88,-99.99,,,-99.99,,2013-02-09 10:51:00,
2013-02-09 02:00:00,38.0,36.0,30.05,South,170,28.0,33.0,92,-99.99,,,-99.99,,2013-02-09 11:00:00,
2013-02-09 02:41:00,38.0,36.0,30.05,South,170,28.0,33.0,92,-99.99,,,-99.99,,2013-02-09 11:41:00,
2013-02-09 02:52:00,38.0,36.0,30.05,South,170,28.0,33.0,92,-99.99,,,-99.99,,2013-02-09 11:52:00,
2013-02-09 03:00:00,38.0,36.0,30.07,South,170,26.0,36.0,92,-99.99,,,-99.99,,2013-02-09 12:00:00,
2013-02-09 03:41:00,38.0,36.0,30.07,South,170,26.0,36.0,92,-99.99,,,-99.99,,2013-02-09 12:41:00,
2013-02-09 03:52:00,38.0,36.0,30.07,South,170,26.0,36.0,92,-99.99,,,-99.99,,2013-02-09 12:52:00,
2013-02-09 04:00:00,39.0,36.0,30.07,South,170,26.0,37.0,88,-99.99,,,-99.99,,2013-02-09 13:00:00,
2013-02-09 04:41:00,39.0,36.0,30.07,South,170,26.0,37.0,88,-99.99,,,-99.99,,2013-02-09 13:41:00,
2013-02-09 04:51:00,39.0,36.0,30.07,South,170,26.0,37.0,88,-99.99,,,-99.99,,2013-02-09 13:51:00,
2013-02-09 05:00:00,38.0,36.0,30.07,South,170,28.0,36.0,92,-99.99,,,-99.99,,2013-02-09 14:00:00,
2013-02-09 05:41:00,38.0,36.0,30.07,South,170,28.0,36.0,92,-99.99,,,-99.99,,2013-02-09 14:41:00,
2013-02-09 05:52:00,38.0,36.0,30.07,South,170,28.0,36.0,92,-99.99,,,-99.99,,2013-02-09 14:52:00,
2013-02-09 06:00:00,38.0,36.0,30.08,South,170,25.0,37.0,92,-99.99,,,-99.99,,2013-02-09 15:00:00,
2013-02-09 06:41:00,38.0,36.0,30.08,South,170,25.0,37.0,92,-99.99,,,-99.99,,2013-02-09 15:41:00,
2013-02-09 06:51:00,38.0,36.0,30.08,South,170,25.0,37.0,92,-99.99,,,-99.99,,2013-02-09 15:51:00,
2013-02-09 07:00:00,38.0,36.0,30.06,South,180,26.0,33.0,92,-99.99,,,-99.99,,2013-02-09 16:00:00,
2013-02-09 07:41:00,38.0,36.0,30.06,South,180,26.0,33.0,92,-99.99,,,-99.99,,2013-02-09 16:41:00,
2013-02-09 07:51:00,38.0,36.0,30.06,South,180,26.0,33.0,92,-99.99,,,-99.99,,2013-02-09 16:51:00,
2013-02-09 08:00:00,38.0,36.0,30.06,South,180,28.0,38.0,92,-99.99,,,-99.99,,2013-02-09 17:00:00,
2013-02-09 08:41:00,38.0,36.0,30.06,South,180,28.0,38.0,92,-99.99,,,-99.99,,2013-02-09 17:41:00,
2013-02-09 08:52:00,38.0,36.0,30.06,South,180,28.0,38.0,92,-99.99,,,-99.99,,2013-02-09 17:52:00,
2013-02-09 09:00:00,38.0,36.0,30.05,South,180,32.0,40.0,92,-99.99,,,-99.99,,2013-02-09 18:00:00,
2013-02-09 09:41:00,38.0,36.0,30.05,South,180,32.0,40.0,92,-99.99,,,-99.99,,2013-02-09 18:41:00,
2013-02-09 09:51:00,38.0,36.0,30.05,South,180,32.0,40.0,92,-99.99,,,-99.99,,2013-02-09 18:51:00,
2013-02-09 10:00:00,38.0,36.0,30.05,South,180,31.0,41.0,92,-99.99,,,-99.99,,2013-02-09 19:00:00,
2013-02-09 10:41:00,38.0,36.0,30.05,South,180,31.0,41.0,92,-99.99,,,-99.99,,2013-02-09 19:41:00,
2013-02-09 10:51:00,38.0,36.0,30.05,South,180,31.0,41.0,92,-99.99,,,-99.99,,2013-02-09 19:51:00,
2013-02-09 11:00:00,38.0,36.0,30.03,South,180,32.0,40.0,92,-99.99,,,-99.99,,2013-02-09 20:00:00,
2013-02-09 11:41:00,38.0,36.0,30.03,South,180,32.0,40.0,92,-99.99,,,-99.99,,2013-02-09 20:41:00,
2013-02-09 11:52:00,38.0,36.0,30.03,South,180,32.0,40.0,92,-99.99,,,-99.99,,2013-02-09 20:52:00,
2013-02-09 12:00:00,38.0,36.0,30.03,South,180,30.0,41.0,92,-99.99,,,-99.99,,2013-02-09 21:00:00,
2013-02-09 12:41:00,38.0,36.0,30.03,South,180,30.0,41.0,92,-99.99,,,-99.99,,2013-02-09 21:41:00,
2013-02-09 12:51:00,38.0,36.0,30.03,South,180,30.0,41.0,92,-99.99,,,-99.99,,2013-02-09 21:51:00,
2013-02-09 13:00:00,38.0,36.0,30.02,South,180,31.0,39.0,92,-99.99,,,-99.99,,2013-02-09 22:00:00,
2013-02-09 13:41:00,38.0,36.0,30.02,South,180,31.0,39.0,92,-99.99,,,-99.99,,2013-02-09 22:41:00,
2013-02-09 13:51:00,38.0,36.0,30.02,South,180,31.0,39.0,92,-99.99,,,-99.99,,2013-02-09 22:51:00,
2013-02-09 14:00:00,38.0,36.0,30.01,South,180,31.0,40.0,92,-99.99,,,-99.99,,2013-02-09 23:00:00,
2013-02-09 14:41:00,38.0,36.0,30.01,South,180,31.0,40.0,92,-99.99,,,-99.99,,2013-02-09 23:41:00,
2013-02-09 14:52:00,38.0,36.0,30.01,South,180,31.0,40.0,92,-99.99,,,-99.99,,2013-02-09 23:52:00,
2013-02-09 15:00:00,39.0,37.0,29.99,South,180,39.0,47.0,92,-99.99,,,-99.99,,2013-02-10 00:00:00,
2013-02-09 15:41:00,39.0,37.0,29.99,South,180,39.0,47.0,92,-99.99,,,-99.99,,2013-02-10 00:41:00,
2013-02-09 15:51:00,39.0,37.0,29.99,South,180,39.0,47.0,92,-99.99,,,-99.99,,2013-02-10 00:51:00,
2013-02-09 16:00:00,39.0,37.0,29.98,South,180,40.0,48.0,92,-99.99,,,-99.99,,2013-02-10 01:00:00,
2013-02-09 16:41:00,39.0,37.0,29.98,South,180,40.0,48.0,92,-99.99,,,-99.99,,2013-02-10 01:41:00,
2013-02-09 16:51:00,39.0,37.0,29.98,South,180,40.0,48.0,92,-99.99,,,-99.99,,2013-02-10 01:51:00,
2013-02-09 17:00:00,39.0,37.0,29.95,South,180,43.0,51.0,92,-99.99,,,-99.99,,2013-02-10 02:00:00,
2013-02-09 17:41:00,39.0,37.0,29.95,South,180,43.0,51.0,92,-99.99,,,-99.99,,2013-02-10 02:41:00,
2013-02-09 17:52:00,39.0,37.0,29.95,South,180,43.0,51.0,92,-99.99,,,-99.99,,2013-02-10 02:52:00,
2013-02-09 18:00:00,39.0,37.0,29.93,South,180,45.0,55.0,92,-99.99,,,-99.99,,2013-02-10 03:00:00,
2013-02-09 18:41:00,39.0,37.0,29.93,South,180,45.0,55.0,92,-99.99,,,-99.99,,2013-02-10 03:41:00,
2013-02-09 18:51:00,39.0,37.0,29.93,South,180,45.0,55.0,92,-99.99,,,-99.99,,2013-02-10 03:51:00,
2013-02-09 19:00:00,39.0,37.0,29.90,South,190,41.0,54.0,92,-99.99,,,-99.99,,2013-02-10 04:00:00,
2013-02-09 19:41:00,39.0,37.0,29.90,South,190,41.0,54.0,92,-99.99,,,-99.99,,2013-02-10 04:41:00,
2013-02-09 19:51:00,39.0,37.0,29.90,South,190,41.0,54.0,92,-99.99,,,-99.99,,2013-02-10 04:51:00,
2013-02-09 20:00:00,40.0,37.0,29.87,South,180,44.0,54.0,89,-99.99,,,-99.99,,2013-02-10 05:00:00,
2013-02-09 20:41:00,40.0,37.0,29.87,South,180,44.0,54.0,89,-99.99,,,-99.99,,2013-02-10 05:41:00,
2013-02-09 20:52:00,40.0,37.0,29.87,South,180,44.0,54.0,89,-99.99,,,-99.99,,2013-02-10 05:52:00,
2013-02-09 22:00:00,41.0,38.0,29.84,South,170,36.0,53.0,88,-99.99,,,-99.99,,2013-02-10 07:00:00,
2013-02-09 22:41:00,41.0,38.0,29.84,South,170,36.0,53.0,88,-99.99,,,-99.99,,2013-02-10 07:41:00,
2013-02-09 22:51:00,41.0,38.0,29.84,South,170,36.0,53.0,88,-99.99,,,-99.99,,2013-02-10 07:51:00,
2013-02-09 23:00:00,40.0,38.0,29.83,South,170,34.0,50.0,92,-99.99,,,-99.99,,2013-02-10 08:00:00,
2013-02-09 23:42:00,40.0,38.0,29.83,South,170,34.0,50.0,92,-99.99,,,-99.99,,2013-02-10 08:42:00,
2013-02-09 23:52:00,40.0,38.0,29.83,South,170,34.0,50.0,92,-99.99,,,-99.99,,2013-02-10 08:52:00,